STARLINK-37324, 68749

Orbit data source: Space-Track

STARLINK-37324, 68749 is a payload satellite owned by SpaceX/Seattle (US) in SSO that was launched on Wed, 15 Apr 2026 UTC via an FALCON 9 launch vehicle from the Air Force Western Test Range (AFWTR). Payload-class satellites include a variety of spacecraft equipped with specific instruments for various scientific and technological missions. These include communications satellites like Starlink; space stations such as the ISS; scientific satellites like the Hubble; Earth observation satellites from companies like Planet Labs, Umbra, and HawkEye 360; GPS; miniature CubeSats for education and research; and military/defense satellites.

Loading next visibility...
Identifier
68749, 2026-082X
Orbit
SSO
Country
Flag of USUS
Related business
Manufacturer
SpaceX/Seattle
Mission
Operational spacecraft
Bus & Motor
STARLINK V2MO, Unknown motor
Mass
575 kg wet, ~530 kg dry
Launch date (UTC)
2026-04-15 (2 months ago)
Launch vehicle
FALCON 9
Launch site
Air Force Western Test Range (AFWTR)
Object type
Payload
Rocket body
Debris
Shape & HBR
Unknown shape, 14.5 m
Radar Cross Section
Large (>1 m²)

Expand to show TLE details & history
Last TLE update: 1 day ago

TLE from 1 day ago
0 STARLINK-37324
1 68749U 26082X   26170.61166704  .00011926  00000-0  37112-3 0  9995
2 68749  97.2858  34.1335 0001891  96.7172 263.4286 15.33447394 10077
Epoch: 2026-06-19T14:40Z
TLE epoch observation values (Epoch: 2026-06-19T14:40:48.032Z)
Latitude
-0.00001°
Longitude
-93.90478°
Altitude
468.796 km
Speed
7.632 km/s
True Right ascension
02h 16m 32s
True Declination
0° 00' 00"
Sunlit
Object was in daylight at epoch
Visualization orbit readout
Latitude
Unknown
Longitude
Unknown
Altitude
Unknown
Speed
Unknown
Apparent Right ascension
Unknown
Apparent Declination
Unknown
Sunlit
N/A
Visualization observer readout
Local Sidereal Time
07:17:58
Azimuth
Unknown
Elevation
Unknown
Doppler factor
Unknown
Orbital elements
Apogee altitude
463.772 km
Perigee altitude
461.185 km
Semi-major axis
6,840.616 km
Eccentricity
0.00019
Inclination
97.2858°
RAAN
34.1335°
Arg. of periapsis
96.7172°
True anomaly
263.40707°
Mean anomaly
263.4286°
Eccentric anomaly
263.41784°
Mean motion
3.83619 °/min
Orbital period
93.84 mins
BSTAR
0.00037112
Loading maneuver chart data...
Computing Atmospheric mass density...
Loading historical data...
Loading historical data...
Loading historical data...
Loading historical data...
Loading historical data...
Loading historical data...
Loading historical data...

Documentation

Showing up to 5 results
|